Location: Erraguntapalli
(18.7700°N, 79.7783°E)
Time: 04:40:18
(UTC+00:00)

Cosmos 2100 Rocket - Pass Details

Date: 15 November 2019
Orbit: 956 x 1001 km, 82.9° (Epoch: 14 December)

Event Time Altitude Azimuth Distance (km) Brightness Sun altitude
Rises 00:10:08 0° 201° (SSW) 3,677 7.0 -9.3°
Reaches altitude 10° 00:12:48 10° 208° (SSW) 2,724 6.2 -8.7°
Maximum altitude 00:18:36 40° 276° (W) 1,391 4.4 -7.3°
Drops below altitude 10° 00:24:21 10° 345° (NNW) 2,701 6.0 -6.0°
Sets 00:27:01 0° 353° (N) 3,643 6.7 -5.4°
